Temperature
31 31 32 31 31 31 31 31 30 29 29 29 28 28 28 27 26 26 25 24 23 22 21 21 20 20 19 19 19 18 18 17 17 16 16 16 16 16 15 15 15 14 14 14
30 31 31 30 31 31 31 31 31 30 29 29 29 28 27 27 26 25 25 24 23 22 21 20 20 19 19 19 18 18 18 17 17 16 16 16 16 15 15 15 14 14 14 14
28 30 30 29 30 31 31 31 31 29 29 29 28 28 27 26 26 25 24 24 23 22 21 20 20 19 18 18 18 17 17 17 16 16 16 15 15 15 15 14 14 14 14 14
28 28 27 29 31 31 30 30 31 30 29 29 28 28 27 26 25 24 24 23 22 22 21 20 19 19 18 18 18 17 17 16 16 16 15 15 15 15 14 14 14 14 14 13
28 27 28 29 30 30 29 29 29 29 29 29 28 28 26 25 25 24 23 22 22 21 20 20 19 18 18 18 17 17 16 16 16 15 15 15 15 14 14 14 14 14 13 13
27 26 26 28 30 30 30 28 28 28 28 28 27 26 25 24 23 23 22 22 21 20 20 19 18 18 17 17 17 16 16 15 15 15 15 15 14 14 14 14 14 13 13 13
26 26 27 28 29 29 27 26 27 27 27 27 26 25 24 24 23 22 21 21 20 20 19 18 18 17 17 16 16 16 15 15 15 15 15 14 14 14 14 14 14 14 13 13
26 25 26 28 28 27 26 26 26 26 26 26 25 24 24 23 22 21 20 20 19 19 18 18 17 17 16 16 16 15 15 15 15 14 14 14 14 14 14 14 14 13 13 13
26 26 26 26 26 26 25 25 25 25 25 24 24 24 23 22 21 20 20 19 18 18 18 17 17 17 16 16 15 15 15 14 14 14 14 14 14 14 14 14 13 13 13 13
26 26 26 25 25 25 25 24 24 24 24 24 23 23 22 21 20 20 19 19 18 17 17 17 16 16 16 15 15 15 15 14 14 14 14 14 14 14 13 13 13 13 12 12
25 26 25 25 25 24 24 24 24 23 23 23 23 22 21 20 20 19 18 18 17 17 17 16 16 16 15 15 15 15 14 14 14 14 14 14 14 14 13 13 13 13 13 12
25 25 25 24 24 23 23 23 23 22 22 22 22 21 20 20 19 18 18 17 17 17 16 16 15 15 15 15 15 15 14 14 14 14 14 14 14 13 13 13 13 13 13 12
24 24 24 23 23 23 23 23 22 22 22 22 21 21 20 19 19 18 18 17 17 16 16 16 15 15 15 15 15 14 14 14 14 14 14 13 13 13 13 13 13 13 13 12
22 22 22 22 22 22 22 22 22 22 21 21 21 20 20 19 18 18 17 17 17 16 16 15 15 15 15 14 14 14 14 14 13 13 13 13 13 13 13 13 13 13 13 12
22 22 22 21 21 21 21 21 21 21 21 21 20 19 19 18 18 17 17 16 16 16 15 15 15 15 14 14 14 13 13 13 13 13 13 13 13 13 13 13 13 12 12 12
21 21 21 21 21 21 21 21 21 21 20 20 19 19 18 18 17 17 16 16 16 16 15 15 15 14 14 14 14 13 13 13 13 13 13 13 13 13 13 13 12 12 12 12
20 20 21 21 20 20 20 20 20 20 20 19 19 18 18 17 17 16 16 16 15 15 15 15 14 14 14 14 14 13 13 13 13 13 13 13 13 12 12 12 12 12 12 12
20 20 20 20 20 20 20 20 19 19 19 19 18 17 17 17 16 16 16 15 15 15 14 14 14 14 14 14 13 13 13 13 13 13 13 13 12 12 12 12 12 12 12 11
20 20 19 19 19 19 19 19 19 18 18 18 17 17 16 16 16 15 15 15 14 14 14 14 14 14 13 13 13 13 13 13 13 13 12 12 12 12 12 12 12 11 11 11
19 19 19 19 19 18 18 18 18 17 17 17 17 16 16 16 15 15 15 14 14 14 14 14 14 13 13 13 13 13 13 13 13 12 12 12 12 12 12 12 11 11 11 11
18 18 18 18 18 18 17 17 17 17 16 17 16 16 16 15 15 15 15 14 14 14 14 13 13 13 13 13 13 13 12 12 12 12 12 12 12 11 11 11 11 11 11 10
17 17 17 17 17 17 17 16 16 16 16 16 16 16 15 15 15 14 14 14 14 14 13 13 13 12 12 12 12 12 12 12 12 12 12 12 11 11 11 11 11 10 10 10
16 16 16 16 16 16 16 16 16 16 15 15 15 15 15 15 14 14 14 14 14 13 13 13 12 12 12 12 12 12 12 12 12 12 11 11 11 11 11 10 10 10 10 9
15 15 15 15 15 15 15 15 15 15 15 15 15 15 15 14 14 14 14 14 13 13 13 12 12 12 12 12 11 11 11 11 11 11 11 11 11 11 10 10 10 10 9 9
15 15 15 15 15 15 15 15 15 14 14 14 14 14 14 14 14 14 13 13 13 13 12 12 12 12 12 11 11 11 11 11 11 11 11 11 11 10 10 10 10 9 9 9
14 14 15 15 15 15 15 14 14 14 14 14 14 14 14 14 13 13 13 13 13 13 12 12 12 12 12 11 11 11 11 11 11 11 10 10 10 10 10 10 9 9 9 9
14 14 14 14 14 14 14 15 14 14 14 14 14 14 13 13 13 13 13 13 13 12 12 12 12 12 11 11 11 11 11 10 10 10 10 10 10 10 9 9 9 9 9 9
Wind_Speed
13 11 10 9 10 10 10 8 8 4 3 0 1 2 4 6 5 5 6 6 6 5 6 6 5 4 4 4 4 3 3 2 2 2 1 0 1 0 1 1 1 1 2 3
12 12 12 11 11 10 10 7 7 3 2 2 0 1 3 5 5 5 5 5 6 6 6 6 5 4 4 4 3 3 3 2 2 2 1 0 0 0 0 1 2 2 2 3
12 11 11 11 8 9 7 5 6 4 1 1 0 1 2 4 4 4 5 5 5 6 7 6 6 5 3 3 3 3 2 1 1 1 1 1 1 1 1 1 1 1 2 2
10 9 12 7 3 4 5 5 5 3 2 2 1 1 3 4 4 4 4 4 4 5 6 6 6 6 4 3 3 2 2 1 1 1 1 1 1 1 0 1 1 1 1 1
9 11 11 8 3 4 5 4 4 4 4 3 2 1 3 5 5 5 4 4 4 5 5 4 4 5 4 3 3 2 2 1 1 1 1 1 1 1 1 1 1 1 1 1
9 10 11 5 2 4 5 3 4 5 5 5 4 3 1 5 6 5 5 5 5 5 5 4 3 4 3 2 2 2 1 1 1 1 1 1 1 1 1 1 1 1 1 1
11 11 7 2 3 4 4 1 4 5 6 4 3 2 2 5 5 5 5 6 6 5 4 4 4 4 3 2 1 1 2 2 1 1 1 1 1 1 1 1 2 1 1 1
9 10 5 5 3 2 4 3 4 5 5 4 3 4 5 6 6 6 6 5 5 5 4 4 4 3 3 2 2 2 2 1 1 0 2 1 1 1 1 2 2 2 1 1
4 3 2 4 4 5 5 5 5 5 5 3 3 3 4 5 5 5 5 5 4 5 5 4 4 3 2 2 2 1 1 1 0 0 1 1 1 2 2 2 2 2 2 2
3 3 2 2 3 4 4 4 4 5 4 3 2 3 4 5 4 4 4 5 4 4 4 4 3 2 2 2 2 1 0 1 1 2 2 2 1 2 1 1 2 3 3 3
5 3 2 2 1 2 3 4 4 4 4 2 1 2 4 4 4 4 3 3 4 3 3 3 3 3 2 2 1 1 1 2 3 3 2 2 2 2 1 0 0 1 2 3
4 1 2 1 3 3 2 2 2 2 3 2 1 2 3 3 4 4 4 3 3 3 3 3 3 3 2 1 1 1 2 3 3 3 2 3 2 1 1 2 3 2 2 2
2 3 2 2 2 2 2 3 2 2 2 1 0 2 3 3 3 3 3 4 4 4 3 3 3 3 2 1 2 3 3 3 3 3 3 3 2 2 2 2 3 4 4 4
3 3 2 1 2 3 3 3 3 3 2 2 0 1 2 3 3 3 3 3 4 4 4 3 3 2 2 2 2 3 4 3 4 3 3 3 3 3 3 3 3 3 5 7
3 2 2 2 3 3 3 4 4 4 3 1 1 2 2 3 2 2 2 2 3 4 4 3 3 2 2 1 2 3 3 3 3 4 4 3 3 3 3 3 3 2 1 2
2 2 3 3 3 4 5 5 5 5 3 2 2 2 2 3 3 3 2 2 3 3 3 3 2 2 2 2 2 3 3 4 4 4 4 3 3 3 3 3 2 2 2 1
4 4 4 4 5 5 6 6 5 4 3 3 2 3 3 3 3 3 3 3 2 1 2 2 2 2 2 2 2 3 4 3 5 4 4 3 3 3 3 3 2 2 2 1
6 5 5 5 5 6 5 5 5 5 4 3 2 3 3 3 3 3 3 3 2 1 1 1 1 2 2 2 3 4 4 4 4 4 3 2 3 3 3 2 2 3 2 1
5 5 5 5 5 5 5 5 4 3 1 2 3 3 3 3 3 2 2 3 2 2 1 1 2 2 2 2 3 4 4 4 4 2 2 2 3 2 2 2 3 2 2 2
6 5 5 5 5 5 4 3 3 2 2 2 3 3 3 3 3 3 3 3 3 2 2 1 1 2 2 2 4 4 4 4 4 2 2 2 2 2 3 3 3 2 2 2
5 5 5 4 4 5 4 2 1 2 2 2 3 4 3 3 3 3 3 3 2 2 2 2 2 2 2 3 5 4 3 3 3 2 2 2 2 2 2 2 2 2 2 2
4 4 4 4 4 4 2 1 1 2 2 2 3 3 4 4 4 4 3 2 3 3 2 2 1 0 3 4 4 3 3 3 2 1 1 1 1 2 2 2 2 2 2 2
3 3 3 3 4 3 2 1 1 1 2 2 2 3 3 3 3 4 3 2 3 4 3 1 1 1 3 3 3 3 2 2 2 2 1 1 2 2 2 2 2 2 2 2
3 3 3 3 3 2 1 1 1 1 2 2 2 2 3 3 3 2 2 4 5 5 3 3 4 3 3 3 2 2 2 2 2 2 2 2 2 2 2 2 2 2 2 2
3 3 3 3 3 2 2 1 1 2 2 2 2 2 2 2 2 2 3 3 5 5 3 5 7 6 5 3 2 2 2 2 2 2 2 3 3 2 2 2 2 2 2 2
3 3 3 2 2 2 2 2 2 2 2 2 2 2 1 1 1 2 2 3 4 3 3 3 4 5 4 3 2 2 2 1 1 2 2 2 3 3 2 3 3 2 1 2
3 2 2 2 2 3 2 2 1 1 1 1 2 1 1 1 2 2 2 2 2 2 2 3 3 3 3 3 2 1 1 1 2 2 2 2 3 3 2 2 2 2 2 2
Wind_Direction
283 287 278 276 274 274 271 276 283 303 300 31 152 156 144 150 158 147 140 134 127 133 124 122 119 124 123 115 105 102 106 111 117 129 158 169 100 60 19 9 356 357 358 0
279 278 280 277 277 272 274 281 284 291 311 358 224 134 135 145 148 146 155 151 144 144 131 128 125 127 120 114 117 109 96 85 84 85 85 89 111 237 53 16 357 6 4 8
274 270 276 263 269 281 288 294 297 292 321 15 200 152 141 142 166 165 160 150 147 144 143 138 135 122 109 109 115 114 108 99 76 65 49 17 316 23 24 344 339 3 11 14
268 277 266 269 282 286 291 298 309 323 14 348 309 211 133 142 144 141 141 136 134 137 141 143 138 133 131 129 122 124 123 100 75 55 44 19 345 352 339 323 336 3 348 359
265 262 259 258 265 277 270 283 342 346 350 338 338 330 103 99 107 120 127 124 123 125 126 121 126 130 131 131 133 121 106 93 60 15 349 350 352 3 357 329 309 310 311 322
262 269 265 264 315 303 261 243 10 4 355 348 352 314 51 87 89 105 119 121 117 119 122 121 118 117 120 114 129 138 123 104 61 359 355 352 349 358 346 307 290 297 321 321
253 261 259 309 334 303 266 311 5 359 348 350 359 345 106 111 111 114 113 112 110 109 113 110 109 111 113 103 104 113 105 100 73 26 334 344 20 336 326 330 310 283 295 304
243 254 258 10 350 20 38 42 21 8 2 13 24 79 107 114 111 112 114 119 126 117 113 112 115 127 128 115 89 89 97 95 92 3 317 6 13 319 310 299 291 282 276 292
237 225 96 24 27 38 37 31 18 10 14 34 47 85 109 116 115 125 132 129 134 136 132 125 122 133 136 115 101 89 89 77 45 334 331 299 263 273 277 282 294 302 297 286
242 199 119 61 46 33 33 23 18 13 9 27 58 86 105 115 123 136 139 138 143 144 140 134 133 130 120 106 104 110 76 304 264 240 242 257 267 266 268 300 318 326 320 318
242 221 218 239 48 46 19 21 25 10 345 356 69 106 116 127 136 137 132 138 142 144 150 150 132 118 131 133 145 193 229 246 251 243 237 234 245 277 266 335 3 288 323 336
254 221 225 135 59 38 25 11 5 341 337 358 64 125 123 131 135 136 142 147 163 166 167 167 157 143 141 162 204 236 246 254 257 254 249 246 224 224 171 184 174 193 215 251
356 1 14 71 45 0 337 333 339 338 329 309 155 143 148 151 152 159 168 176 182 174 167 158 159 156 154 191 229 250 259 263 267 270 267 265 271 256 237 213 211 226 229 232
19 13 19 10 340 335 332 331 334 316 301 288 253 136 147 148 162 173 175 174 170 166 162 165 178 186 185 198 229 249 257 257 270 268 275 279 280 275 271 265 251 246 230 230
309 295 286 306 299 298 304 305 299 292 289 269 194 146 152 154 162 164 148 166 163 169 169 177 189 203 201 212 247 256 265 273 281 285 283 281 282 284 290 295 292 293 255 226
290 287 280 279 281 281 281 280 282 285 281 269 208 175 171 164 154 149 166 177 177 187 176 179 197 199 197 239 261 253 240 247 255 270 279 286 294 298 298 305 315 323 329 345
251 253 266 273 275 278 282 286 287 283 275 255 215 183 179 167 161 166 175 179 177 181 177 186 199 194 204 224 258 276 271 253 239 260 272 278 288 292 300 301 300 306 326 1
254 257 270 275 273 279 282 282 280 279 270 248 189 172 185 182 187 173 161 149 137 158 169 173 209 225 217 223 242 258 273 276 268 265 269 280 288 293 296 297 303 312 327 306
263 270 279 286 289 286 286 287 285 284 261 207 197 188 180 177 172 166 170 158 165 197 203 206 230 242 238 237 268 260 266 270 271 267 262 258 263 278 295 303 305 315 320 334
254 267 277 283 287 290 287 285 280 257 216 202 184 177 177 176 169 180 186 186 198 209 180 153 217 261 270 272 278 267 265 272 275 276 257 264 279 293 300 305 313 319 316 324
260 270 279 288 295 301 304 308 251 210 196 183 179 180 186 186 176 182 203 211 178 153 159 146 224 264 280 296 276 273 274 277 271 276 280 277 286 299 311 320 320 323 335 344
277 280 282 288 293 296 300 294 243 201 203 205 203 192 186 187 192 193 193 191 163 145 174 224 240 352 323 303 290 299 303 301 292 288 299 316 319 310 309 318 319 320 329 332
289 295 292 289 292 295 296 290 244 199 195 212 212 204 208 208 212 204 199 181 175 166 185 180 150 137 300 283 290 301 306 307 305 305 331 336 298 293 303 306 305 304 305 308
298 299 291 283 275 267 269 268 242 203 205 219 214 198 206 208 205 209 191 154 162 164 180 156 167 202 246 259 275 288 295 298 309 317 326 312 298 297 302 306 315 327 325 325
267 270 271 265 251 237 211 213 204 192 210 221 219 203 223 229 222 183 159 160 164 173 180 180 191 213 233 248 260 272 283 297 308 311 320 311 306 316 334 338 350 358 353 346
253 249 238 233 238 225 217 211 213 214 222 229 233 223 213 165 135 136 154 172 182 190 202 191 194 213 235 248 254 264 279 287 301 301 313 312 319 336 353 355 349 339 332 329
231 228 212 213 206 209 214 210 209 217 237 249 255 231 198 180 182 189 204 201 197 212 220 215 215 213 228 236 234 231 246 271 286 296 310 320 322 325 335 333 320 314 310 318
Height
1473 1469 1469 1472 1472 1471 1473 1475 1482 1483 1483 1482 1483 1484 1486 1490 1492 1495 1498 1500 1502 1503 1505 1508 1510 1511 1511 1512 1513 1513 1513 1513 1513 1512 1512 1511 1511 1510 1510 1509 1509 1508 1507 1506
1478 1472 1470 1474 1471 1470 1470 1470 1473 1477 1483 1479 1481 1483 1486 1488 1491 1494 1498 1500 1502 1503 1504 1507 1508 1510 1510 1511 1512 1512 1512 1512 1512 1512 1511 1511 1510 1509 1509 1508 1508 1507 1505 1505
1487 1476 1476 1483 1473 1470 1471 1469 1471 1480 1482 1479 1482 1484 1486 1489 1491 1494 1496 1499 1501 1503 1504 1506 1507 1508 1509 1509 1511 1512 1512 1512 1511 1511 1511 1510 1509 1508 1508 1507 1507 1506 1504 1504
1485 1487 1501 1479 1466 1468 1470 1471 1471 1473 1476 1479 1482 1483 1486 1488 1491 1493 1496 1498 1500 1502 1504 1505 1506 1507 1508 1509 1510 1511 1511 1511 1510 1510 1509 1509 1508 1507 1507 1506 1506 1505 1504 1502
1486 1492 1487 1475 1468 1468 1473 1476 1474 1475 1477 1479 1481 1483 1486 1488 1491 1493 1496 1498 1499 1502 1503 1504 1506 1506 1507 1508 1509 1509 1509 1509 1509 1509 1508 1507 1507 1506 1506 1505 1505 1504 1503 1502
1486 1495 1498 1480 1468 1468 1471 1481 1477 1478 1479 1481 1482 1486 1489 1489 1491 1493 1496 1498 1499 1501 1503 1504 1505 1506 1506 1506 1507 1507 1508 1508 1508 1507 1507 1506 1506 1505 1504 1504 1503 1503 1502 1501
1489 1492 1483 1472 1470 1470 1484 1488 1480 1480 1481 1482 1484 1487 1489 1490 1492 1494 1496 1498 1499 1501 1503 1504 1504 1505 1505 1505 1506 1506 1506 1506 1506 1506 1505 1505 1504 1504 1503 1503 1502 1502 1501 1500
1486 1493 1489 1475 1473 1478 1484 1481 1481 1482 1483 1484 1485 1486 1488 1490 1492 1494 1496 1498 1500 1501 1503 1503 1503 1504 1504 1505 1505 1504 1504 1505 1505 1504 1504 1504 1503 1503 1502 1502 1501 1500 1499 1498
1478 1483 1480 1478 1479 1481 1481 1482 1483 1483 1484 1485 1486 1488 1489 1491 1493 1495 1496 1498 1500 1500 1501 1502 1502 1503 1504 1504 1504 1503 1503 1503 1503 1503 1503 1502 1502 1501 1501 1500 1500 1499 1498 1497
1474 1475 1477 1479 1481 1482 1483 1484 1485 1485 1486 1486 1487 1488 1490 1491 1493 1495 1496 1497 1499 1499 1500 1501 1501 1502 1503 1503 1502 1502 1502 1502 1502 1502 1501 1501 1501 1500 1500 1499 1498 1498 1497 1496
1474 1475 1477 1479 1481 1483 1484 1485 1485 1486 1486 1487 1487 1488 1490 1491 1493 1494 1496 1497 1498 1498 1499 1500 1501 1501 1501 1502 1501 1501 1501 1501 1501 1501 1500 1500 1499 1499 1498 1497 1497 1496 1495 1494
1474 1475 1476 1479 1481 1483 1485 1485 1486 1487 1487 1487 1487 1488 1489 1491 1492 1493 1495 1496 1497 1498 1498 1499 1499 1499 1500 1499 1500 1499 1499 1500 1500 1499 1499 1498 1497 1497 1496 1496 1495 1494 1493 1492
1475 1476 1477 1479 1481 1483 1484 1485 1486 1486 1486 1487 1487 1488 1489 1490 1491 1492 1493 1494 1495 1496 1497 1497 1497 1497 1497 1498 1497 1497 1497 1497 1498 1497 1497 1496 1496 1495 1494 1493 1493 1492 1491 1489
1476 1478 1479 1480 1482 1483 1484 1485 1485 1486 1486 1486 1487 1488 1488 1489 1490 1491 1492 1493 1494 1494 1495 1495 1495 1496 1495 1495 1495 1495 1495 1495 1495 1495 1495 1494 1494 1493 1492 1491 1490 1489 1488 1487
1478 1479 1480 1481 1482 1483 1484 1484 1484 1485 1485 1486 1486 1487 1488 1488 1489 1490 1491 1491 1492 1492 1493 1493 1493 1493 1493 1493 1492 1493 1493 1493 1493 1493 1492 1492 1491 1491 1490 1489 1488 1487 1486 1484
1478 1479 1480 1481 1482 1482 1483 1483 1483 1483 1483 1484 1485 1485 1486 1486 1487 1488 1489 1490 1490 1491 1490 1491 1491 1491 1491 1490 1490 1490 1490 1490 1490 1490 1490 1489 1489 1488 1487 1487 1486 1485 1484 1482
1479 1479 1479 1480 1481 1481 1481 1481 1482 1482 1482 1482 1483 1483 1484 1484 1485 1486 1486 1488 1488 1489 1489 1489 1489 1489 1489 1489 1488 1488 1489 1488 1488 1488 1487 1487 1486 1485 1485 1484 1483 1482 1482 1481
1477 1478 1479 1479 1479 1480 1480 1480 1480 1480 1480 1480 1481 1481 1482 1482 1483 1484 1485 1486 1487 1487 1487 1487 1487 1487 1487 1486 1486 1486 1486 1486 1485 1485 1484 1484 1483 1483 1483 1482 1481 1480 1479 1479
1476 1476 1477 1477 1477 1478 1478 1478 1477 1478 1478 1478 1479 1479 1480 1481 1482 1483 1483 1484 1484 1485 1485 1485 1485 1485 1485 1484 1484 1484 1484 1483 1482 1482 1482 1481 1480 1480 1480 1480 1479 1478 1477 1476
1474 1475 1475 1475 1476 1476 1475 1475 1475 1475 1475 1476 1477 1477 1478 1479 1480 1481 1481 1482 1482 1483 1483 1483 1483 1483 1483 1482 1482 1482 1481 1480 1480 1480 1479 1478 1478 1478 1478 1477 1477 1476 1475 1474
1472 1473 1473 1473 1473 1473 1473 1473 1472 1473 1473 1474 1475 1475 1476 1477 1477 1478 1479 1480 1481 1481 1481 1481 1481 1481 1480 1480 1479 1479 1479 1478 1477 1476 1476 1476 1476 1476 1475 1475 1474 1474 1473 1472
1470 1471 1471 1471 1471 1471 1471 1471 1471 1471 1471 1472 1473 1474 1474 1474 1475 1476 1477 1478 1478 1478 1478 1478 1478 1478 1478 1478 1478 1477 1477 1476 1475 1474 1474 1474 1474 1474 1473 1473 1472 1472 1471 1470
1469 1469 1469 1469 1469 1469 1469 1469 1469 1469 1470 1470 1471 1471 1472 1472 1473 1474 1475 1475 1476 1476 1476 1476 1476 1476 1476 1476 1476 1475 1475 1474 1473 1473 1473 1472 1472 1472 1471 1471 1470 1470 1468 1467
1467 1467 1468 1468 1468 1467 1467 1467 1468 1468 1468 1469 1469 1470 1470 1471 1472 1472 1472 1472 1473 1473 1474 1474 1474 1474 1474 1474 1474 1473 1473 1472 1472 1472 1472 1471 1471 1470 1470 1469 1468 1467 1466 1465
1465 1466 1466 1465 1465 1465 1466 1466 1466 1466 1467 1467 1468 1468 1469 1470 1470 1470 1470 1471 1471 1471 1472 1472 1472 1472 1472 1472 1472 1472 1471 1471 1470 1470 1470 1469 1469 1469 1468 1467 1466 1465 1464 1463
1464 1464 1463 1463 1463 1464 1464 1464 1464 1465 1466 1466 1467 1467 1468 1468 1468 1469 1469 1469 1469 1469 1470 1470 1470 1470 1471 1471 1471 1470 1470 1469 1469 1469 1468 1468 1467 1467 1466 1465 1464 1463 1462 1461
1462 1462 1462 1462 1462 1462 1462 1462 1463 1464 1464 1464 1465 1466 1466 1467 1467 1467 1467 1468 1468 1468 1468 1468 1468 1468 1469 1469 1469 1468 1468 1467 1467 1467 1466 1466 1465 1465 1464 1463 1462 1460 1459 1458